Location: Dome Town
(6.3442°N, 10.6349°W)
Time: 13:53:09
(UTC+00:00)

Daily predictions for brighter satellites

Satellite Brightness Start Highest point End
(mag) Time Altitude Azimuth Time Altitude Azimuth Time Altitude Azimuth
BLOCK DM-SL R/B 4.4 18:50:45 10° WSW 18:55:29 55° S 19:10:48 10° E
FengYun 1-2 T 4.2 19:04:25 10° SSE 19:09:56 71° ENE 19:15:24 10° N
Milstar 3 Cent rocket 4.4 19:09:14 10° NW 19:16:55 42° NNE 19:31:31 12° E
Cosmos 1544 Rocket 4.3 19:14:20 10° SSE 19:18:08 30° E 19:21:56 10° NNE
Nadezhda 2 Rocket 4.4 19:12:23 10° N 19:18:28 67° E 19:24:30 10° SSE
Cosmos 1470 4.3 19:18:08 10° SE 19:20:25 15° E 19:22:41 10° NE
STARLINK-1170 3.7 19:18:12 10° NW 19:21:35 60° WSW 19:25:00 10° SSE
Cosmos 2278 Rocket 3.5 19:18:39 10° NNE 19:22:34 19° ENE 19:26:28 10° ESE
Cosmos 1844 4.0 19:17:09 10° NNW 19:22:50 74° WSW 19:28:35 10° S
ARIANE 42L R/B 4.4 19:19:09 10° WSW 19:22:55 41° S 19:35:45 12° ESE
Cosmos 1707 3.2 19:19:35 10° N 19:23:26 67° W 19:27:19 10° S
CZ-4 R/B 1.3 19:20:42 10° SSE 19:24:37 58° ENE 19:28:26 10° N
EUTELSAT W3B 4.2 19:26:32 10° WSW 19:28:59 42° SSE 19:35:20 14° E
Cosmos 1809 Rocket 4.4 19:24:07 10° N 19:30:11 70° E 19:36:18 10° S
Cosmos 1733 3.1 19:27:29 10° S 19:31:16 81° E 19:35:01 10° N
CSL-04 Debris 4.5 19:27:38 10° SSE 19:32:51 46° ENE 19:38:04 10° N
Cosmos 1758 4.4 19:31:01 10° SE 19:34:16 23° E 19:37:30 10° NE
NOSS 3-3 (A) 3.7 19:30:26 10° SSW 19:35:56 61° ESE 19:41:31 10° NNE
NOSS 3-3 (C) 3.7 19:30:33 10° SSW 19:36:02 60° ESE 19:41:37 10° NNE
Cosmos 1271 Rocket 2.5 19:33:35 10° N 19:37:17 72° E 19:41:01 10° S
Cosmos 1452 Rocket 3.8 19:33:06 10° N 19:38:06 45° ENE 19:43:08 10° SSE
USA 229 DEB 4.3 19:32:43 10° N 19:39:52 44° ENE 19:47:04 10° SE
USA 229 4.3 19:32:50 10° N 19:39:58 43° ENE 19:47:10 10° SE
Meteor 1-22 Rocket 4.3 19:34:51 10° S 19:40:20 78° W 19:45:38 10° N
Cosmos 1939 Rocket 2.8 19:38:39 10° SSE 19:42:43 80° E 19:46:43 10° N
USA 81 4.5 19:39:11 10° NNE 19:44:00 37° E 19:48:50 10° SSE
STARLINK-1131 4.3 19:42:18 10° NNW 19:46:06 34° NE 19:47:41 25° E
Cosmos 1745 Rocket 4.1 19:44:07 10° NNE 19:50:03 48° E 19:55:56 10° SSE
Lacrosse 5 3.7 19:46:05 10° WNW 19:50:30 31° WSW 19:54:57 10° S
Ariane H10 4.0 19:43:33 10° WSW 19:50:38 23° SSW 19:53:14 12° SSE
STARLINK-1190 4.1 19:47:10 10° NNW 19:51:04 40° NE 19:52:28 30° E
Cosmos 1943 3.9 19:46:25 10° SSE 19:51:12 29° ESE 19:55:03 14° NE
In-Cosmos 22 4.5 19:46:37 10° NNW 19:52:02 67° W 19:57:21 10° S
CZ-2D R/B 3.3 19:48:15 10° S 19:52:06 79° W 19:55:55 10° NNW
Cosmos 1674 2.5 19:52:16 10° N 19:55:56 61° E 19:59:34 10° SSE
H-2A R/B 2.0 19:56:18 10° SW 19:57:06 17° SSW 19:57:06 17° SSW
SL-4 R/B 1.5 19:55:46 10° SW 19:59:18 83° NW 20:01:00 27° NNE
HJ-1C 3.7 19:59:41 42° ENE 19:59:41 42° ENE 20:02:31 10° N
CZ-2C R/B 3.9 19:56:28 10° NNE 20:00:55 47° ESE 20:05:19 10° S
Cosmos 2315 Rocket 3.9 19:55:06 10° S 20:01:19 76° E 20:07:35 10° N
KORONAS-FOTON 3.6 19:59:28 10° N 20:03:12 72° E 20:06:10 16° S
H-2A R/B 3.0 20:05:15 28° ENE 20:05:15 28° ENE 20:09:07 10° NNE
Meteor 2-15 Rocket 4.4 20:00:34 10° S 20:06:32 56° E 20:12:26 10° NNE
GEOS 3 Rocket 3.7 20:06:09 35° ESE 20:07:56 50° ENE 20:12:50 10° NNW
CSL-04 Rocket 3.8 20:02:39 10° S 20:08:02 73° WSW 20:13:20 10° NNW
Cosmos 967 Rocket 4.5 20:04:22 10° SSW 20:10:43 88° WNW 20:17:08 10° NNE
ATLAS 3B CENTAUR R/B 3.6 20:15:09 10° NNW 20:17:21 13° N 20:17:38 13° N
Meteor 2-15 4.4 20:11:21 10° S 20:17:26 83° W 20:23:30 10° N
NOSS 3-1 (C) 4.3 20:11:45 10° NNW 20:20:27 86° WSW 20:29:23 10° SSE
BLOCK DM-SL R/B 4.0 20:20:14 10° WSW 20:24:52 50° S 20:26:38 39° SE
Cosmos 1603 3.8 20:24:41 10° SSW 20:30:22 73° WNW 20:35:59 10° N
DMSP B5D2-2 3.9 20:25:29 10° NNE 20:30:41 73° ESE 20:35:55 10° S
Cosmos 2251 Rocket 4.0 20:26:11 10° SSW 20:31:24 61° WNW 20:36:40 10° N
STARLINK-1162 4.4 20:31:50 10° NW 20:35:38 49° WSW 20:35:38 49° WSW
STARLINK-1129 4.4 20:33:04 10° NW 20:36:42 48° WSW 20:36:42 48° WSW
Ariane H10+ 4.2 20:29:41 10° WSW 20:37:13 35° SSW 20:37:55 34° S
Hubble Space Telescope 2.2 20:33:58 10° SW 20:36:20 32° SW 20:36:20 32° SW
Atlas Centaur 2 2.4 20:39:21 10° NW 20:43:34 51° NW 20:43:34 51° NW
ARGOS 4.5 20:48:38 28° N 20:48:38 28° N 20:51:08 10° N
Cosmos 1709 Rocket 3.8 20:41:18 10° N 20:46:57 77° NNE 20:46:57 77° NNE
GPS 2-17 Rocket1 4.2 20:43:59 10° WNW 20:47:21 41° NW 20:47:21 41° NW
Centaur D AC-29 4.4 20:21:03 10° WNW 21:02:10 29° SW 21:07:50 16° S
ARIANE 5 R/B 4.3 20:59:11 10° W 21:00:50 31° W 21:00:50 31° W
Cosmos 2278 Rocket 3.9 21:01:32 10° NW 21:06:23 30° WSW 21:08:51 21° SW
Centaur AC-119 4.3 20:56:25 10° WSW 21:07:55 39° NW 21:08:08 39° NNW
Longmarch 3A Rocket 4.3 21:11:41 10° WNW 21:37:45 56° WSW 21:37:45 56° WSW
ATLAS 5 CENTAUR R/B 4.2 21:57:49 10° WNW 22:39:11 15° ENE 22:48:49 10° E
